Regional Weather Roundup
Issued by NWS Green Bay, WI

Home | Current Version | Previous Version | Text Only | Print | Product List | Glossary On
Versions: 1 2 3 4 5 6 7 8 9 10 11 12 13 14 15 16 17 18 19 20 21 22 23 24 25 26 27 28 29 30 31 32 33 34 35 36 37 38 39 40 41 42 43 44 45 46 47 48 49 50
000
ASUS43 KGRB 210410
RWRGRB

NORTH-CENTRAL AND NORTHEAST WISCONSIN REGIONAL WEATHER ROUNDUP
NATIONAL WEATHER SERVICE GREEN BAY WI
1000 PM CST SAT DEC 20 2014

WIZ005-009-010>012-018-019-210500-
NORTH CENTRAL WISCONSIN

CITY           SKY/WX    TMP DP  RH WIND       PRES   REMARKS
IRONWOOD       CLOUDY    28  27  93 S5        30.08S
MANITOWISH WTR CLOUDY    27  26  96 S6        30.10S
ARBOR VITAE    CLOUDY    29  27  90 S8        30.11S
EAGLE RIVER    CLOUDY    27  26  96 SE5       30.12F FOG
LAND O LAKES   CLOUDY    28  27  94 S5        30.12F
RHINELANDER    CLOUDY    26  24  92 S7        30.13F
PHILLIPS       CLOUDY    28  26  94 S7        30.11S FOG
ANTIGO         CLOUDY    25  24  95 S5        30.15F FOG
TOMAHAWK       CLOUDY    27  25  91 CALM      30.13F FOG
MERRILL        CLOUDY    28  26  89 S3        30.14F
$$

WIZ013-073-210500-
NORTHEAST WISCONSIN

CITY           SKY/WX    TMP DP  RH WIND       PRES   REMARKS
IRON MOUNTAIN  CLOUDY    27  23  85 SE6       30.16S
MARINETTE      CLOUDY    28  23  80 CALM      30.21F
OCONTO         CLOUDY    27  26  96 CALM      30.21F
$$

WIZ017-030-035>037-045-210500-
CENTRAL WISCONSIN

CITY           SKY/WX    TMP DP  RH WIND       PRES   REMARKS
MEDFORD        CLOUDY    28  26  94 S8        30.12F FOG
WAUSAU         CLOUDY    29  25  85 S5        30.14F
MOSINEE        CLOUDY    28  28 100 SE6       30.16F
MARSHFIELD     CLOUDY    29  25  85 S8        30.14F FOG
WISC RAPIDS    CLOUDY    29  24  82 S3        30.18F
STEVENS POINT  CLOUDY    27  25  91 SE3       30.17F
WAUPACA        CLOUDY    30  27  88 SE3       30.20F FOG
SHAWANO        CLOUDY    30  26  83 CALM      30.21F HAZE
CLINTONVILLE   CLOUDY    28  27  93 S3        30.21S FOG
$$

WIZ038-039-048-051-210500-
FOX VALLEY

CITY           SKY/WX    TMP DP  RH WIND       PRES   REMARKS
NWS GREEN BAY  CLOUDY    29  26  89 S3        30.22F FOG
APPLETON       CLOUDY    27  27 100 VRB3      30.21F FOG
OSHKOSH        CLOUDY    28  25  88 CALM      30.21F FOG
FOND DU LAC    CLOUDY    30  26  85 S5        30.21F
$$

WIZ022-050-052-210500-
EAST CENTRAL WISCONSIN

CITY           SKY/WX    TMP DP  RH WIND       PRES   REMARKS
STURGEON BAY   CLOUDY    27  25  93 CALM      30.23S
MANITOWOC      CLOUDY    30  28  92 CALM      30.23S
SHEBOYGAN      CLOUDY    29  25  85 CALM      30.22F
$$

LMZ563-521-522-541>543-210500-
LAKESHORE

STATION/POSITION TIME  TEMP    WIND        PRES    VSBY  WAVE
                       AIR SEA DIR/SP/G                  HT/PER
                 (UTC) (F)     (DEG/KT/KT) (MB)    (MI)  (FT/S)
SHEBOYGAN LKSHOR 0400   31 34  220/  5/  5 1024.5F
KEWAUNEE LKSHORE 0400   27     290/  2/  4 1022.4F
ALGOMA MARINA    0400          330/  5/  6   N/A
NORTHPORT PIER   0400   31     190/  3/  6 1023.4S
SISTER BAY LKSHO 0400             CALM       N/A
CHAMBERS ISLAND  0400   28      CALM  /  1 1023.4F
MENOMINEE LKSHOR 0400   29     210/  2/  3 1023.7F
$$


USA.gov is the U.S. government's official web portal to all federal, state and local government web resources and services.